Volver al catálogo

CZ-6A DEB

ActivoSSO
NORAD 54395·DEBRIS·🇨🇳 China

Lanzado Nov 11, 2022 desde Taiyuan Satellite Launch Center

Loading…

Próximos Pases (próximas 24 horas)

TLE

ActualizadoSource: Space-Track

Época: Sep 14, 2026, 13:14 UTC

1 54395U 22151DT  26257.55145856  .00001970  00000-0  43174-3 0  9997
2 54395  98.4613 288.8007 0119394  17.6785 342.8512 14.54491538202556

Sigue CZ-6A DEB en tiempo real con AllMySat

Download on the App Store